• In Austria
  • List of Countries
  • For 7 days
  • Water Temperature
  • Satellite Maps
  • Weather Map
  • News
  • Weather Widgets
  • user-avatar
    Login

    Hourly Weather Varna

    Today, 22 October, Monday

    Time Temperature Precipitation Wind Pressure Humidity
    00:00 +12°C° 0 mm 4 mps 750 mmHg 78%
    01:00 +12°C° 0 mm 5 mps 750 mmHg 77%
    02:00 +10°C° 0 mm 5 mps 750 mmHg 75%
    03:00 +10°C° 0 mm 5 mps 750 mmHg 75%
    04:00 +9°C° 0 mm 5 mps 750 mmHg 75%
    05:00 +9°C° 0 mm 5 mps 750 mmHg 75%
    06:00 +9°C° 0 mm 5 mps 751 mmHg 73%
    07:00 +9°C° 0 mm 5 mps 751 mmHg 71%
    08:00 +10°C° 0 mm 5 mps 751 mmHg 69%
    09:00 +12°C° 0 mm 5 mps 751 mmHg 64%
    10:00 +14°C° 0 mm 5 mps 751 mmHg 59%
    11:00 +15°C° 0 mm 5 mps 751 mmHg 54%
    12:00 +16°C° 0 mm 5 mps 751 mmHg 51%
    13:00 +16°C° 0 mm 5 mps 751 mmHg 49%
    14:00 +17°C° 0 mm 5 mps 751 mmHg 46%
    15:00 +17°C° 0 mm 4 mps 750 mmHg 49%
    16:00 +15°C° 0 mm 4 mps 750 mmHg 52%
    17:00 +15°C° 0 mm 4 mps 750 mmHg 55%
    18:00 +14°C° 0 mm 3 mps 750 mmHg 60%
    19:00 +13°C° 0 mm 3 mps 750 mmHg 64%
    20:00 +13°C° 0 mm 2 mps 750 mmHg 68%
    21:00 +13°C° 0 mm 2 mps 750 mmHg 69%
    22:00 +12°C° 0 mm 2 mps 750 mmHg 70%
    23:00 +12°C° 0 mm 2 mps 750 mmHg 71%

    Tomorrow, 23 October, Tuesday

    Time Temperature Precipitation Wind Pressure Humidity
    00:00 +12°C° 0 mm 2 mps 750 mmHg 71%
    01:00 +10°C° 0 mm 3 mps 750 mmHg 70%
    02:00 +10°C° 0 mm 3 mps 750 mmHg 69%
    03:00 +10°C° 0 mm 3 mps 750 mmHg 69%
    04:00 +9°C° 0 mm 3 mps 750 mmHg 68%
    05:00 +9°C° 0 mm 3 mps 749 mmHg 67%
    06:00 +10°C° 0 mm 3 mps 750 mmHg 64%
    07:00 +10°C° 0 mm 3 mps 750 mmHg 61%
    08:00 +11°C° 0 mm 3 mps 750 mmHg 57%
    09:00 +12°C° 0 mm 3 mps 750 mmHg 52%
    10:00 +15°C° 0 mm 2 mps 750 mmHg 46%
    11:00 +17°C° 0 mm 2 mps 750 mmHg 40%
    12:00 +18°C° 0 mm 2 mps 749 mmHg 39%
    13:00 +18°C° 0 mm 2 mps 749 mmHg 38%
    14:00 +19°C° 0 mm 2 mps 748 mmHg 37%
    15:00 +18°C° 0 mm 2 mps 748 mmHg 41%
    16:00 +17°C° 0 mm 2 mps 747 mmHg 45%
    17:00 +16°C° 0 mm 2 mps 747 mmHg 49%
    18:00 +15°C° 0 mm 2 mps 747 mmHg 53%
    19:00 +14°C° 0 mm 2 mps 747 mmHg 57%
    20:00 +14°C° 0 mm 2 mps 747 mmHg 60%
    21:00 +13°C° 0 mm 2 mps 746 mmHg 62%
    22:00 +12°C° 0 mm 3 mps 746 mmHg 63%
    23:00 +11°C° 0 mm 3 mps 745 mmHg 64%

    Day after tomorrow, 24 October, Wednesday

    Time Temperature Precipitation Wind Pressure Humidity
    00:00 +11°C° 0 mm 3 mps 745 mmHg 63%
    01:00 +11°C° 0 mm 4 mps 744 mmHg 62%
    02:00 +11°C° 0 mm 4 mps 744 mmHg 60%
    03:00 +10°C° 0 mm 5 mps 743 mmHg 62%
    04:00 +10°C° 0 mm 6 mps 742 mmHg 63%
    05:00 +10°C° 0 mm 6 mps 742 mmHg 65%
    06:00 +10°C° 0 mm 7 mps 741 mmHg 63%
    07:00 +11°C° 0 mm 8 mps 741 mmHg 61%
    08:00 +11°C° 0 mm 8 mps 741 mmHg 59%
    09:00 +13°C° 0 mm 9 mps 740 mmHg 54%
    10:00 +15°C° 0 mm 9 mps 739 mmHg 49%
    11:00 +17°C° 0 mm 9 mps 739 mmHg 44%
    12:00 +17°C° 0 mm 10 mps 738 mmHg 43%
    13:00 +18°C° 0 mm 10 mps 737 mmHg 42%
    14:00 +19°C° 0 mm 11 mps 736 mmHg 40%
    15:00 +18°C° 0 mm 10 mps 735 mmHg 41%
    16:00 +17°C° 0 mm 10 mps 735 mmHg 42%
    17:00 +17°C° 0 mm 9 mps 735 mmHg 42%
    18:00 +14°C° 0.2 mm 10 mps 735 mmHg 46%
    19:00 +12°C° 0.2 mm 10 mps 736 mmHg 49%
    20:00 +11°C° 0.2 mm 10 mps 736 mmHg 52%
    21:00 +10°C° 0.3 mm 9 mps 737 mmHg 47%
    22:00 +8°C° 0.3 mm 9 mps 738 mmHg 41%
    23:00 +6°C° 0.3 mm 9 mps 739 mmHg 36%

    25 October, Thursday

    Time Temperature Precipitation Wind Pressure Humidity
    00:00 +6°C° 0 mm 9 mps 739 mmHg 38%
    01:00 +5°C° 0 mm 8 mps 739 mmHg 40%
    02:00 +5°C° 0 mm 8 mps 740 mmHg 42%
    03:00 +5°C° 0 mm 8 mps 740 mmHg 42%
    04:00 +3°C° 0 mm 9 mps 740 mmHg 43%
    05:00 +3°C° 0 mm 9 mps 740 mmHg 43%
    06:00 +3°C° 0 mm 9 mps 741 mmHg 42%
    07:00 +3°C° 0 mm 9 mps 741 mmHg 42%
    08:00 +3°C° 0 mm 10 mps 742 mmHg 41%
    09:00 +6°C° 0 mm 9 mps 742 mmHg 38%
    10:00 +7°C° 0 mm 9 mps 743 mmHg 36%
    11:00 +8°C° 0 mm 9 mps 743 mmHg 33%
    12:00 +10°C° 0 mm 8 mps 743 mmHg 32%
    13:00 +11°C° 0 mm 8 mps 743 mmHg 31%
    14:00 +11°C° 0 mm 8 mps 743 mmHg 29%
    15:00 +11°C° 0 mm 7 mps 743 mmHg 30%
    16:00 +10°C° 0 mm 6 mps 743 mmHg 30%
    17:00 +9°C° 0 mm 6 mps 743 mmHg 31%
    18:00 +9°C° 0 mm 5 mps 743 mmHg 34%
    19:00 +8°C° 0 mm 5 mps 743 mmHg 36%
    20:00 +8°C° 0 mm 5 mps 743 mmHg 39%
    21:00 +8°C° 0 mm 6 mps 743 mmHg 46%
    22:00 +8°C° 0 mm 6 mps 743 mmHg 53%
    23:00 +8°C° 0 mm 7 mps 743 mmHg 60%

    26 October, Friday

    Time Temperature Precipitation Wind Pressure Humidity
    00:00 +8°C° 0 mm 7 mps 743 mmHg 65%
    01:00 +8°C° 0 mm 7 mps 743 mmHg 69%
    02:00 +8°C° 0 mm 7 mps 743 mmHg 73%
    03:00 +8°C° 0 mm 7 mps 743 mmHg 75%
    04:00 +8°C° 0 mm 6 mps 744 mmHg 77%
    05:00 +7°C° 0 mm 6 mps 744 mmHg 79%
    06:00 +8°C° 0 mm 6 mps 744 mmHg 77%
    07:00 +8°C° 0 mm 5 mps 745 mmHg 76%
    08:00 +9°C° 0 mm 5 mps 746 mmHg 74%
    09:00 +12°C° 0 mm 5 mps 746 mmHg 66%
    10:00 +13°C° 0 mm 4 mps 746 mmHg 57%
    11:00 +15°C° 0 mm 4 mps 747 mmHg 49%
    12:00 +17°C° 0 mm 3 mps 747 mmHg 47%
    13:00 +17°C° 0 mm 3 mps 747 mmHg 44%
    14:00 +18°C° 0 mm 2 mps 747 mmHg 42%
    15:00 +17°C° 0 mm 3 mps 747 mmHg 46%
    16:00 +16°C° 0 mm 3 mps 747 mmHg 50%
    17:00 +14°C° 0 mm 4 mps 747 mmHg 55%
    18:00 +14°C° 0 mm 4 mps 747 mmHg 60%
    19:00 +13°C° 0 mm 4 mps 748 mmHg 65%
    20:00 +12°C° 0 mm 5 mps 748 mmHg 71%
    21:00 +12°C° 0 mm 5 mps 748 mmHg 73%
    22:00 +12°C° 0 mm 4 mps 748 mmHg 75%
    23:00 +12°C° 0 mm 4 mps 748 mmHg 78%

    27 October, Saturday

    Time Temperature Precipitation Wind Pressure Humidity
    00:00 +12°C° 0 mm 4 mps 748 mmHg 77%
    01:00 +11°C° 0 mm 4 mps 748 mmHg 76%
    02:00 +11°C° 0 mm 4 mps 748 mmHg 75%
    03:00 +11°C° 0 mm 4 mps 748 mmHg 77%
    04:00 +11°C° 0 mm 4 mps 748 mmHg 79%
    05:00 +11°C° 0 mm 4 mps 748 mmHg 81%
    06:00 +10°C° 0 mm 5 mps 748 mmHg 80%
    07:00 +12°C° 0 mm 5 mps 748 mmHg 79%
    08:00 +12°C° 0 mm 5 mps 748 mmHg 79%
    09:00 +14°C° 0 mm 5 mps 748 mmHg 70%
    10:00 +16°C° 0 mm 6 mps 748 mmHg 61%
    11:00 +19°C° 0 mm 6 mps 748 mmHg 53%
    12:00 +20°C° 0 mm 7 mps 747 mmHg 50%
    13:00 +21°C° 0 mm 7 mps 747 mmHg 47%
    14:00 +22°C° 0 mm 7 mps 746 mmHg 44%
    15:00 +21°C° 0 mm 7 mps 746 mmHg 48%
    16:00 +20°C° 0 mm 6 mps 746 mmHg 52%
    17:00 +19°C° 0 mm 6 mps 746 mmHg 56%
    18:00 +19°C° 0 mm 6 mps 746 mmHg 58%
    19:00 +17°C° 0 mm 6 mps 746 mmHg 61%
    20:00 +17°C° 0 mm 7 mps 746 mmHg 63%
    21:00 +16°C° 0 mm 7 mps 746 mmHg 67%
    22:00 +16°C° 0 mm 7 mps 746 mmHg 72%
    23:00 +15°C° 0 mm 7 mps 746 mmHg 76%

    28 October, Sunday

    Time Temperature Precipitation Wind Pressure Humidity
    00:00 +15°C° 0 mm 7 mps 746 mmHg 79%
    01:00 +15°C° 0 mm 7 mps 746 mmHg 82%
    02:00 +15°C° 0 mm 7 mps 746 mmHg 85%
    03:00 +15°C° 0 mm 7 mps 746 mmHg 86%
    04:00 +15°C° 0 mm 7 mps 746 mmHg 87%
    05:00 +15°C° 0 mm 7 mps 746 mmHg 88%
    06:00 +15°C° 0 mm 7 mps 746 mmHg 87%
    07:00 +15°C° 0 mm 7 mps 747 mmHg 85%
    08:00 +16°C° 0 mm 7 mps 747 mmHg 84%
    09:00 +17°C° 0 mm 7 mps 747 mmHg 76%
    10:00 +20°C° 0 mm 7 mps 747 mmHg 68%
    11:00 +22°C° 0 mm 8 mps 747 mmHg 60%
    12:00 +22°C° 0 mm 8 mps 747 mmHg 57%
    13:00 +23°C° 0 mm 8 mps 747 mmHg 53%
    14:00 +24°C° 0 mm 8 mps 746 mmHg 50%
    15:00 +23°C° 0 mm 7 mps 746 mmHg 53%
    16:00 +22°C° 0 mm 7 mps 746 mmHg 56%
    17:00 +21°C° 0 mm 6 mps 746 mmHg 58%
    18:00 +20°C° 0 mm 6 mps 747 mmHg 61%
    19:00 +19°C° 0 mm 6 mps 747 mmHg 63%
    20:00 +17°C° 0 mm 6 mps 747 mmHg 66%
    21:00 +17°C° 0 mm 6 mps 747 mmHg 67%
    22:00 +17°C° 0 mm 6 mps 747 mmHg 68%
    23:00 +16°C° 0 mm 6 mps 747 mmHg 69%
    Show more